www.pogodaiklimat.ru

Погода и климат >> Архив погоды >> Монголия >> Даланзадгад


ПОГОДА в Даланзадгаде

  • Прогноз погоды в Даланзадгаде
  • Монитор погоды в Даланзадгаде

АРХИВ ПОГОДЫ в Даланзадгаде

Время (UTC), дата Ветер
(напр.,м/с)
 
Видим.   Явления Облачность Т
(С)
Тd
(С)
f
(%)
Тe
(С)
Тes
(С)
Комфортность P
(гПа)
Po
(гПа)
Тmin
(С)
Tmax
(С)
R
(мм)
R24
(мм)
S
(см)
21 11.09 С 5 н/о слаб. дождь 10/10 600 м
[Sc]
+12.9 +8.6 75 +11 +11 1013.0 850.0
00 12.09 С 4 10 км дождь 10/10 600 м
[Sc As op]
+11.1 +11.1 100 +9 +9 1015.4 851.1 +10.8 3
03 12.09 С 6 50 км {дождь} 9/0
[As op]
+11.8 +6.9 72 +9 +10 1016.9 852.6
06 12.09 С 2 50 км {дождь} 9/8
[Sc Ci fib]
+15.1 +5.0 51 +15 +17 1013.6 851.7
09 12.09 С 7 50 км 8/8 1000 м
[Cu med, cong]
+16.0 +0.9 36 +15 +15 1012.8 851.5
12 12.09 СЗ 3 50 км 3/0
[Ac lent]
+13.7 +0.4 40 +13 +13 1015.5 852.6 +23.0 0.6
15 12.09 З 4 50 км ясно +11.2 -2.2 39 +9 +9 1019.1 854.3
18 12.09 З 3 50 км ясно +9.7 -3.6 39 +8 +8 1020.2 854.5
21 12.09 З 4 50 км ясно +10.7 -4.9 33 +9 +9 1018.7 853.7
00 13.09 З 6 50 км 3/0
[Ci]
+11.9 -6.0 28 +10 +10 1018.8 854.4 +8.4
03 13.09 СЗ 6 50 км 3/3 1000 м
[Cu hum]
+15.2 -5.2 24 +14 +17 1017.6 855.1
06 13.09 С 5 50 км 4/4 1000 м
[Cu hum]
+17.5 -5.1 21 +17 +21 1015.3 854.4
09 13.09 С 5 50 км 3/3 1000 м
[Cu hum]
+17.8 -6.1 19 +17 +19 1014.4 853.7
12 13.09 СЗ 2 50 км ясно +14.4 -5.4 25 +14 +14 1017.1 854.3 +18.3
15 13.09 ЮЗ 2 50 км ясно +11.3 -4.8 32 +11 +11 1019.9 855.0
18 13.09 С 4 50 км ясно +10.9 -10.0 22 +9 +9 1019.4 854.4
21 13.09 ЮЗ 2 50 км ясно +7.4 -7.4 34 +6 +6 1020.5 853.4
00 14.09 З 1 50 км ясно +9.3 -6.2 33 +9 +10 1020.0 854.1 +6.0
03 14.09 СЗ 6 50 км 8/0
[As trans Ci]
+15.6 -8.6 18 +14 +16 1016.0 854.0
06 14.09 З 9
{16}
50 км 4/1 1000 м
[Cu hum Ci]
+19.3 -8.0 15 +18 +19 1012.1 852.5
09 14.09 З 9
{16}
50 км {метель} 3/3 1000 м
[Cu hum]
+19.7 -9.5 13 +19 +19 1009.9 850.9
12 14.09 З 5 50 км {метель} 1/0
[Ac lent]
+15.9 -11.6 14 +15 +15 1012.8 851.5 +20.4
15 14.09 З 6 50 км ясно +14.2 -9.8 18 +13 +13 1015.4 852.8
18 14.09 СЗ 4 50 км ясно +11.4 -8.4 24 +10 +10 1018.9 854.2
21 14.09 СЗ 3 50 км ясно +7.2 -7.2 35 +5 +5 1023.2 855.5
00 15.09 З 3 50 км 1/0
[Ci]
+9.0 -3.5 41 +7 +8 1023.9 857.1 +6.4
03 15.09 СВ 2 50 км 1/0
[Ci]
+13.7 -7.1 23 +14 +22 1021.8 857.9
06 15.09 В 2 50 км 3/3 1000 м
[Cu med, cong Ci fib]
+16.8 -7.0 19 +17 +25 1018.1 856.3
09 15.09 ЮВ 4 50 км 4/3 1000 м
[Cu med, cong Ci]
+18.1 -7.3 17 +18 +19 1014.7 854.4
12 15.09 В 2 50 км 3/0
[Ac lent]
+15.3 -6.3 22 +15 +15 1016.6 854.2 +19.0
15 15.09 ЮЗ 1 50 км ясно +11.9 -6.0 28 +12 +12 1019.6 855.1
18 15.09 СВ 2 50 км ясно +8.5 -6.5 34 +7 +7 1020.3 853.9
21 15.09 В 1 50 км ясно +6.9 -6.8 37 +7 +7 1020.8 853.4
00 16.09 З 2 50 км ясно +13.6 -8.9 20 +14 +14 1017.3 854.0 +6.4
03 16.09 З 4 50 км ясно +19.9 -11.4 11 +19 +25 1013.8 854.3
06 16.09 СЗ 6
{13}
50 км 3/3 1000 м
[Cu hum]
+21.3 -10.4 11 +20 +23 1011.2 852.8
09 16.09 С 5 50 км 3/3 1000 м
[Cu hum]
+20.5 -11.0 11 +20 +21 1010.4 851.8
12 16.09 СЗ 3 50 км 1/0
[Ci]
+16.6 -11.9 13 +17 +17 1014.6 853.3 +22.3
15 16.09 З 3 50 км 3/0
[Ac trans]
+12.7 -10.3 19 +12 +12 1019.5 855.5
18 16.09 З 3 50 км ясно +10.5 -9.8 23 +9 +9 1022.2 856.5
21 16.09 З 3 50 км ясно +7.9 -9.5 28 +6 +6 1025.8 858.1
00 17.09 З 2 50 км ясно +10.8 -9.0 24 +10 +11 1027.0 860.7 +7.1
03 17.09 В 3 50 км ясно +16.9 -5.6 21 +17 +24 1024.9 862.1
06 17.09 СВ 3 50 км 1/1 1000 м
[Cu hum]
+19.6 -6.5 16 +20 +28 1022.2 861.3
09 17.09 ЮВ 3 50 км 1/1 1000 м
[Cu hum]
+21.0 -8.5 13 +21 +23 комфорт 1020.4 860.4
12 17.09 ЮВ 3 50 км ясно +17.4 -8.7 16 +17 +17 1022.8 860.6 +21.3
15 17.09 Ю 4 50 км ясно +13.6 -5.0 27 +12 +12 1026.7 862.0
18 17.09 ЮЗ 5 50 км ясно +14.5 -5.8 24 +13 +13 1025.6 861.4
21 17.09 ЮЗ 4 50 км ясно +13.5 -6.6 24 +12 +12 1026.0 861.4
00 18.09 ЮЗ 3 50 км 10/0
[Ac lent Cs]
+16.0 -9.0 17 +16 +16 1024.9 861.7 +13.3
03 18.09 ЮЗ 6 50 км 10/0
[Cs]
+21.0 -13.1 9 +20 +22 1021.8 861.6
06 18.09 ЮЗ 3 50 км 10/0
[Ac As]
+21.7 -12.6 9 +20 +23 1019.0 859.5
09 18.09 СЗ 2 50 км 10/6 600 м
[Sc Ac lent]
+21.2 -11.6 10 +20 +20 1018.0 858.5
12 18.09 З 2 н/о 10/0
[As op]
+18.4 -9.6 14 +19 +19 1020.4 859.0 +22.5
15 18.09 З 3 н/о 10/0
[As trans]
+16.9 -9.1 16 +17 +17 1021.2 859.0
18 18.09 СВ 1 н/о 10/0
[As trans]
+14.3 -7.7 21 +15 +15 1022.0 858.3

 

Местоположение метеостанции Даланзадгад (Монголия): широта 43.58 долгота 104.41 высота над уровнем моря 1465 м.

В архиве по умолчанию представлена погода в Даланзадгаде за последнюю неделю. Архивные данные за месяц целиком и за предыдущие месяцы, начиная с января 2011 года, Вы можете получить, выбрав интересующий диапазон дат из раскрывающегося списка и нажав кнопку "Ввод!".


*Определитесь, кто Вы:
робот инопланетянин человек

Внимание! Время в таблицах - всемирное. Для получения местного времени необходимо прибавить поправку, которая равна 8 ч.

Смотрите также архив погоды в соседних городах и на ближайших метеорологических станциях:

Погода в Цогт-Овоо (Монголия) (118 км)
Погода в Сайкхан-Ову (Монголия) (212 км)
Погода в Богде (Монголия) (216 км)
Погода в Ханбогде (Монголия) (226 км)
Погода на Баян Добо Сума (Монголия) (247 км)
Погода в Мандалгоби (Монголия) (285 км)
Погода в Баинвендурьере (Внутренняя Монголия, Китай) (287 км)
Погода в Гуайцзыху (Внутренняя Монголия, Китай) (298 км)
Погода в Баян Мод (Внутренняя Монголия, Китай) (315 км)
Погода в Арвайхээре (Монголия) (326 км)

Пояснения к столбцам:

Ветер - указаны скорость ветра в м/с - средняя за 10 мин, порывы в срок и между сроками (в фигурных скобках) и направление, откуда дует ветер: С - северный, СВ - северо-восточный, В - восточный, ЮВ - юго-восточный, Ю - южный, ЮЗ - юго-западный, З - западный, СЗ - северо-западный.
Видимость - горизонтальная дальность видимости в метрах или километрах. При видимости от 1 до 10 км при отсутствии осадков обычно наблюдается дымка, при ухудшении видимости до 1 км и менее - туман. В сухую погоду видимость может ухудшаться дымом, пылью или мглою.
Явления - указаны атмосферные явления, наблюдавшиеся в срок или в последний час перед сроком; фигурными скобками обозначены явления, наблюдавшиеся между сроками (за 1-3 часа до срока); квадратными скобками обозначены град или гололедные отложения с указанием их диаметра в мм.
Облачность - указаны через наклонную черту общая и нижняя облачность в баллах и высота нижней границы облаков в метрах; квадратными скобками обозначены формы облаков: Ci - перистые, Cs - перисто-слоистые, Cc - перисто-кучевые, Ac - высококучевые, As - высокослоистые, Sc - слоисто-кучевые, Ns - слоисто-дождевые, Cu - кучевые, Cb - кучево-дождевые. Подробнее классификацию облаков см. в Атласе облаков (PDF).
T - Температура воздуха - температура, измеренная на высоте 2 м над землей.
Td - Температура точки росы - температура, при понижении до которой содержащийся в воздухе водяной пар достигнет насыщения.
f - Относительная влажность воздуха - влажноcть воздуха, измеренная на высоте 2 м над землей.
Te - Эффективная температура - температура, которую ощущает одетый по сезону человек в тени. Характеристика душности погоды. При расчете учитывается влияние влажности воздуха и скорости ветра на теплоощущения человека.
Tes - Эффективная температура на солнце - температура, которую ощущает человек, с поправкой на солнечный нагрев. Характеристика знойности погоды. Зависит от высоты солнца над горизонтом, облачности и скорости ветра. Ночью, в пасмурную погоду, а также при ветре 12 м/с и более поправка равна нулю.
P - Атмосферное давление - приведенное к уровню моря атмосферное давление.
Po - Атмосферное давление - измеренное на уровне метеостанции атмосферное давление.
Tmin - Минимальная температура - минимум температуры воздуха на высоте 2 м над землей.
Tmax - Максимальная температура - максимум температуры воздуха на высоте 2 м над землей.
R - Количество осадков - Количество выпавших осадков за период времени, мм. При наведении курсора мыши на число - период времени, за который выпало указанное количество осадков.
R24 - Количество осадков - Количество выпавших осадков за 24 часа, мм.
S - Снежный покров - Высота снежного покрова, см. При наведении курсора мыши на число - состояние снежного покрова и степень покрытия местности в баллах.